ONEWEB-0373 (49299 NORAD) Tracking and Keplerian Element Data

This shows tracking and keplerian element data for the satellite.

Feedback or suggestion? Click here.




ElementValue
Catalog49299
NameONEWEB-0373
Epoch Orbit355
Epoch Day339.91667824
Epoch Year2021
RAAN275.0429
Inclination87.2011
Eccentricity0.0010719
Argument of Perigee78.1345
Mean Anonmoly136.7106
Mean Motion14.88399431
Decay Rate-0.0005455
L11 49299U 21090W 21339.91667824 -.00054550 00000+0 -59385-2 0 9998
L22 49299 87.2011 275.0429 0010719 78.1345 136.7106 14.88399431 3556

Live tracking and technical data element details for ONEWEB-0373 (NORAD 49299). ONEWEB-0373 can be tracked NOW for your location showing map with azimuth and elevation plus other details from your city location.

Track the satellite on the map from your city or location and see movement details for azimuth, elevation, latitude, longitude, range, height, and movement on the map or in text.







IsCatalogInMostPopularTable: catalog: 49299, numindb: 3
Update: records affected: 1



GetName: 49299 ONEWEB-0373

Hit Count: updated at: Mon, 06 Dec 2021 14:00:33 GMT